EWG1GD LFBD-EDDL

Flight info

Callsign EWG1GD
Flight time N/A
Altitude 34000
Route CNA DCT ADABI DCT BOKNO/N0453F360 UN858 VANAD UN874 PIWIZ DCT TSU UN858 OQQAL DCT RANUX/N0448F350 DCT VALEK DCT LUTAX DCT DIK/N0404F230 N853 ARCKY T853 NVO T857 BIKMU BIKMU1A
Aircraft A320/M-SDE3FGHIRWY/LB1

Departure

Time 2026-05-06 09:16
Airport Bordeaux–Mérignac Airport (LFBD)

Arrival

Time N/A
Airport Düsseldorf Airport (EDDL)
Time Latitude Longitude Altitude Speed Heading
2026-05-06 08:58 44.83129 -0.70446 167 ft 0 kts 116°
2026-05-06 09:09 44.83131 -0.70452 167 ft 3 kts 117°
2026-05-06 09:09 44.83144 -0.70486 167 ft 4 kts 118°
2026-05-06 09:09 44.83156 -0.70519 167 ft 4 kts 107°
2026-05-06 09:09 44.83157 -0.70550 167 ft 3 kts 49°
2026-05-06 09:10 44.83155 -0.70553 167 ft 0 kts 45°
2026-05-06 09:12 44.83172 -0.70529 167 ft 9 kts 45°
2026-05-06 09:12 44.83232 -0.70444 166 ft 11 kts 45°
2026-05-06 09:13 44.83277 -0.70380 166 ft 7 kts 45°
2026-05-06 09:13 44.83305 -0.70341 165 ft 7 kts 42°
2026-05-06 09:13 44.83368 -0.70326 165 ft 10 kts 349°
2026-05-06 09:13 44.83432 -0.70276 164 ft 12 kts 46°
2026-05-06 09:14 44.83488 -0.70192 163 ft 12 kts 44°
2026-05-06 09:14 44.83549 -0.70110 162 ft 12 kts 45°
2026-05-06 09:14 44.83612 -0.70025 162 ft 13 kts 41°
2026-05-06 09:14 44.83696 -0.70026 161 ft 13 kts 335°
2026-05-06 09:15 44.83780 -0.70088 160 ft 14 kts 317°
2026-05-06 09:15 44.83787 -0.70217 161 ft 15 kts 239°
2026-05-06 09:15 44.83624 -0.70454 162 ft 66 kts 225°
2026-05-06 09:15 44.83148 -0.71132 169 ft 125 kts 225°
2026-05-06 09:16 44.82430 -0.72167 266 ft 163 kts 224°
2026-05-06 09:16 44.81650 -0.73277 917 ft 161 kts 229°
2026-05-06 09:16 44.80861 -0.74402 1620 ft 166 kts 228°
2026-05-06 09:16 44.80002 -0.75634 1957 ft 187 kts 227°
2026-05-06 09:17 44.79027 -0.77031 2274 ft 213 kts 230°
2026-05-06 09:17 44.78260 -0.78881 2684 ft 231 kts 262°
2026-05-06 09:17 44.78521 -0.81138 3244 ft 245 kts 301°
2026-05-06 09:17 44.79796 -0.82720 4083 ft 253 kts 337°
2026-05-06 09:18 44.81556 -0.83059 4993 ft 262 kts
2026-05-06 09:18 44.83274 -0.82090 5880 ft 272 kts 27°
2026-05-06 09:18 44.85004 -0.81043 6739 ft 272 kts
2026-05-06 09:18 44.86860 -0.80928 7586 ft 271 kts 354°
2026-05-06 09:19 44.88743 -0.81199 8479 ft 274 kts 350°
2026-05-06 09:19 44.90646 -0.81530 9348 ft 277 kts 352°
2026-05-06 09:19 44.92595 -0.81453 10167 ft 285 kts
2026-05-06 09:19 44.94502 -0.80479 10644 ft 307 kts 28°
2026-05-06 09:20 44.96242 -0.78520 10872 ft 333 kts 40°
2026-05-06 09:20 44.98020 -0.76235 11098 ft 357 kts 40°
2026-05-06 09:20 44.99896 -0.73820 11582 ft 371 kts 41°
2026-05-06 09:20 45.01793 -0.71388 12336 ft 374 kts 41°
2026-05-06 09:21 45.03734 -0.68914 13056 ft 378 kts 40°
2026-05-06 09:21 45.05706 -0.66417 13749 ft 382 kts 40°
2026-05-06 09:21 45.07695 -0.63906 14366 ft 385 kts 40°
2026-05-06 09:21 45.09703 -0.61371 14986 ft 388 kts 40°
2026-05-06 09:22 45.11727 -0.58817 15592 ft 392 kts 40°
2026-05-06 09:22 45.13846 -0.56373 16169 ft 394 kts 32°
2026-05-06 09:22 45.16231 -0.54461 16744 ft 395 kts 23°
2026-05-06 09:22 45.18816 -0.53118 17328 ft 397 kts 16°
2026-05-06 09:23 45.21418 -0.51924 17936 ft 399 kts 17°
2026-05-06 09:23 45.24068 -0.50702 18476 ft 402 kts 17°